{"data":{"norad_id":65897,"intl_designator":"2025-224R","name":"STARLINK-34934","alt_names":[],"object_type":"PAYLOAD","status":"ACTIVE","operator":null,"country":"US","launch_date":"2025-10-07","launch_site_code":"AFETR","launch_vehicle":null,"mission":null,"orbit_class":"UNKNOWN","rcs_meters":null,"size_class":null,"mass_kg":null,"dimensions":null,"purposes":["comms"],"wikipedia_slug":null,"has_3d_model":false,"image_url":null,"decayed_at":null,"tle_current":{"epoch":"2026-05-25T00:11:54.727584Z","epoch_age_seconds":74094,"freshness":"FRESH","line1":"1 65897U 25224R   26145.00827231  .00016566  00000+0  50032-3 0  9997","line2":"2 65897  53.1595  15.8131 0001113  81.5252 278.5877 15.34401206 36529","mean_motion":15.34401206,"eccentricity":0.0001113,"inclination_deg":53.1595,"raan_deg":15.8131,"arg_perigee_deg":81.5252,"mean_anomaly_deg":278.5877,"bstar":0.00050032,"rev_number":3652,"period_min":93.847684319403,"perigee_km":461.93827060352,"apogee_km":463.46104084308,"semimajor_km":6840.8366557233,"source":"CELESTRAK","updated_at":"2026-05-25T13:38:20.982077Z"}}}